This is the latest recevied weather packets stored in our database for station/object EA7DYY-12. If no packets are shown the sender has not sent any weather packets the latest 10 day(s).
| Time | Temp. | Humidity | Pressure | Rain* | Wind** | Luminosity | Snow |
|---|---|---|---|---|---|---|---|
| 1787762487 | 21.67° C | 59% | 1155.7 hPa | - | - | - | - |
| 1787761587 | 21.67° C | 58% | 1155.7 hPa | - | - | - | - |
| 1787760687 | 21.67° C | 58% | 1155.8 hPa | - | - | - | - |
| 1787759787 | 21.67° C | 58% | 1155.8 hPa | - | - | - | - |
| 1787758887 | 21.67° C | 58% | 1155.8 hPa | - | - | - | - |
| 1787757086 | 21.67° C | 58% | 1156 hPa | - | - | - | - |
| 1787756187 | 21.11° C | 57% | 1156 hPa | - | - | - | - |
| 1787755286 | 21.67° C | 56% | 1156.1 hPa | - | - | - | - |
| 1787754386 | 21.11° C | 56% | 1156.1 hPa | - | - | - | - |
| 1787753486 | 21.67° C | 53% | 1156.1 hPa | - | - | - | - |
| 1787752586 | 21.67° C | 55% | 1156.2 hPa | - | - | - | - |
| 1787751686 | 21.67° C | 54% | 1156.4 hPa | - | - | - | - |
| 1787749886 | 21.11° C | 55% | 1156.5 hPa | - | - | - | - |
| 1787748986 | 21.11° C | 55% | 1156.6 hPa | - | - | - | - |
| 1787748086 | 21.11° C | 56% | 1156.7 hPa | - | - | - | - |
| 1787747186 | 21.11° C | 59% | 1156.6 hPa | - | - | - | - |
| 1787746286 | 21.11° C | 59% | 1156.6 hPa | - | - | - | - |
| 1787745386 | 21.11° C | 58% | 1156.6 hPa | - | - | - | - |
| 1787744485 | 21.11° C | 59% | 1156.5 hPa | - | - | - | - |
| 1787742686 | 21.11° C | 61% | 1156.9 hPa | - | - | - | - |
| 1787741785 | 21.11° C | 61% | 1156.9 hPa | - | - | - | - |
| 1787740885 | 21.11° C | 60% | 1156.7 hPa | - | - | - | - |
| 1787739985 | 21.11° C | 60% | 1156.7 hPa | - | - | - | - |
| 1787739085 | 21.11° C | 61% | 1156.7 hPa | - | - | - | - |
| 1787738185 | 21.11° C | 60% | 1156.5 hPa | - | - | - | - |
* Rain since midnight (hover to see other rain measurements)
** Current wind speed in m/s (hover to see current wind gust speed)